Flag for France Weather past 2 weeks in Nîmes, France

Now
63 °F

Clear.


Feels Like: 63 °F
Forecast: 57 / 79 °F
Wind: 6 mph from North

Location: Nimes / Garons

Current Time: Sep 3, 2015 at 2:54:57 AM

Latest Report: Sep 3, 2015 at 2:30 AM


Visibility: 10 mi

Pressure: 29.95 "Hg

Humidity: 73%

Dew point: 54 °F

Location of NîmesLocation

Historic Weather in Nîmes — Graph

°F

Nîmes temperature yesterday

Maximum temperature yesterday: 81 °F (at 6:30 PM)
Minimum temperature yesterday: 59 °F (at 6:30 AM)
Average temperature yesterday: 70 °F

Past Weeks' High & Low Weather Summary

 TemperatureHumidityPressure
High90 °F (Aug 21, 3:00 PM)100% (Aug 23, 4:00 PM)30.18 "Hg (Aug 23, 4:00 PM)
Low57 °F (Aug 25, 6:00 AM)22% (Aug 20, 2:30 PM)29.71 "Hg (Aug 23, 3:00 PM)
Average72 °F64%30.02 "Hg
* Reported Aug 19 1:00 AM — Sep 3 1:30 AM, Nîmes, Weather by CustomWeather, © 2015

Note: Actual official high and low records may vary slightly from our data, if they occured in-between our weather recording intervals... More about our weather records

Advertising

Nîmes weather history for previous 24 hours

 ConditionsComfort  
Time TempWeatherWind HumidityBarometerVisibility
1:30 AM
Thu, Sep 3
63 °FClear.6 mph77%29.95 "Hg10 mi
1:00 AM63 °FClear.5 mph73%29.95 "Hg10 mi
12:30 AM64 °FClear.3 mph68%29.95 "Hg10 mi
11:30 PM
Wed, Sep 2
64 °FClear.5 mph68%29.95 "Hg10 mi
11:00 PM66 °FClear.3 mph64%29.95 "Hg10 mi
10:30 PM68 °FClear.5 mph60%29.95 "Hg10 mi
10:00 PM68 °FClear.3 mph64%29.95 "Hg10 mi
9:30 PM68 °FClear.3 mph64%29.95 "Hg10 mi
9:00 PM70 °FSunny.3 mph60%29.92 "Hg10 mi
8:30 PM70 °FSunny.2 mph60%29.92 "Hg10 mi
8:00 PM73 °FSunny.1 mph53%29.92 "Hg10 mi
7:30 PM77 °FSunny.3 mph47%29.92 "Hg10 mi
7:00 PM79 °FSunny.2 mph39%29.92 "Hg10 mi
6:30 PM81 °FSunny.3 mph37%29.92 "Hg10 mi
5:30 PM79 °FPassing clouds.7 mph37%29.92 "HgN/A
5:00 PM79 °FPassing clouds.7 mph39%29.92 "HgN/A
4:30 PM77 °FPassing clouds.7 mph42%29.92 "HgN/A
4:00 PM79 °FPassing clouds.6 mph39%29.92 "HgN/A
3:30 PM79 °FPassing clouds.6 mph42%29.92 "HgN/A
3:00 PM77 °FPassing clouds.7 mph42%29.95 "HgN/A
2:30 PM77 °FSunny.6 mph42%29.95 "Hg10 mi
2:00 PM77 °FPassing clouds.7 mph42%29.95 "HgN/A
1:30 PM75 °FPassing clouds.6 mph47%29.95 "HgN/A
1:00 PM73 °FPassing clouds.8 mph47%29.98 "HgN/A
12:30 PM73 °FPassing clouds.9 mph53%29.98 "HgN/A
12:00 PM72 °FPassing clouds.9 mph53%29.98 "HgN/A
11:30 AM72 °FPassing clouds.10 mph53%29.98 "HgN/A
11:00 AM72 °FPassing clouds.10 mph53%29.98 "HgN/A
10:30 AM70 °FPassing clouds.8 mph57%29.98 "HgN/A
10:00 AM68 °FPassing clouds.7 mph60%29.98 "HgN/A
9:30 AM64 °FPassing clouds.6 mph68%29.98 "HgN/A
9:00 AM64 °FPassing clouds.6 mph64%29.98 "HgN/A
8:30 AM64 °FPassing clouds.6 mph64%29.98 "HgN/A
8:00 AM63 °FClear.6 mph73%29.98 "Hg10 mi
7:30 AM61 °FClear.5 mph77%29.98 "Hg10 mi
7:00 AM59 °FClear.6 mph82%29.98 "Hg10 mi
6:30 AM59 °FClear.7 mph82%29.98 "Hg10 mi
5:30 AM61 °FClear.6 mph77%29.98 "Hg10 mi
5:00 AM63 °FClear.7 mph68%29.98 "Hg10 mi
4:30 AM63 °FClear.6 mph68%29.98 "Hg10 mi
4:00 AM63 °FPassing clouds.6 mph68%29.98 "HgN/A
3:30 AM64 °FClear.5 mph64%29.98 "Hg10 mi
3:00 AM64 °FClear.9 mph68%29.98 "Hg10 mi
2:30 AM66 °FClear.9 mph64%29.98 "Hg10 mi
2:00 AM66 °FClear.9 mph64%30.01 "Hg10 mi
Weather by CustomWeather, © 2015

See weather overviewHow to use our weather pages